Regional Weather Roundup
Issued by NWS

Home | Current Version | Previous Version | Graphics & Text | Print | Product List | Glossary On
Versions: 1 2 3 4 5 6 7 8 9 10 11 12 13 14 15 16 17 18 19 20 21 22 23 24 25 26 27 28 29 30 31 32 33 34 35 36 37 38 39 40 41 42 43 44 45 46 47 48 49 50
000
ASUS45 KTFX 202310
RWRMT
MONTANA REGIONAL WEATHER ROUNDUP
NATIONAL WEATHER SERVICE GREAT FALLS MT
500 PM MDT WED SEP 20 2017

NOTE: "FAIR" INDICATES FEW OR NO CLOUDS BELOW 12000 FEET WITH NO
SIGNIFICANT WEATHER AND/OR OBSTRUCTIONS TO VISIBILITY.

MTZ001>007-043-210000-
WEST OF THE DIVIDE

CITY           SKY/WX    TMP DP  RH WIND       PRES   REMARKS
KALISPELL      CLOUDY    53  30  41 W9        29.58R
MISSOULA       CLOUDY    46  41  82 SE6       29.66F
BUTTE          CLOUDY    44  37  76 NE5       29.67S
MULLAN PASS    SNOW      32  30  92 CALM      29.62S VSB 1/4
ANACONDA         N/A     43  34  70 W7        29.66R
DEER LODGE       N/A     45  39  81 E5        29.67S
EUREKA           N/A     54  34  47 CALM      29.56S
HAMILTON         N/A     48  36  61 S5        29.68R
LIBBY            N/A     52  36  54 E7        29.59R
PLAINS           N/A     51  38  61 CALM      29.67S
$$

MTZ008-052>055-210000-
SOUTHWEST MONTANA

CITY           SKY/WX    TMP DP  RH WIND       PRES   REMARKS
BOZEMAN        CLOUDY    52  39  61 SW13      29.64R
DILLON         CLOUDY    46  35  65 W24G33    29.67R
W YELLOWSTONE  CLOUDY    46  34  61 SW9G21    29.73F
ENNIS          CLOUDY    52  32  46 W12G22    29.69R
THREE FORKS      N/A     55  36  49 W12       29.67R
TWIN BRIDGES     N/A     51  31  46 SW18      29.69R
$$

MTZ009-010-012-014-046-048-049-054-210000-
EAST SLOPES AND CENTRAL MONTANA

CITY           SKY/WX    TMP DP  RH WIND       PRES   REMARKS
CUT BANK       MOSUNNY   52  25  35 SW22G28   29.52R
GREAT FALLS    SUNNY     56  31  38 SW18      29.56R
MALMSTROM AFB  MOSUNNY   56  31  38 SW24G31   29.55R
HELENA         LGT RAIN  49  39  68 W18G33    29.62R
BOWMANS CRNR     N/A     49  32  50 SW21      29.56R
CHOTEAU          N/A     55  18  22 NW14      29.54R
FAIRFIELD        N/A     54  28  36 SW24G30   29.53R
POWER            N/A     55  29  37 SW21      29.52R
RAYNESFORD     PTSUNNY   54  33  43 W10G23    29.57R
ULM            PTSUNNY   54  33  45 W17G28    29.57R
$$

MTZ011-013-016-021-045-047-050-051-210000-
NORTH CENTRAL MONTANA

CITY           SKY/WX    TMP DP  RH WIND       PRES   REMARKS
HAVRE          PTSUNNY   62  30  29 SW21G29   29.48S
LEWISTOWN      CLOUDY    53  35  50 SW14      29.58S
N BAR RANCH    PTSUNNY   57  30  35 SW16      29.61R
CHINOOK          N/A     61  28  29 SW13G22   29.49R
DENTON           N/A     57  32  38 W20       29.52S
GEYSER         PTSUNNY   55  32  41 W24G35    29.55R
GRASS RANGE    LGT RAIN  48  41  77 SW10      29.55S
JUDITH GAP       N/A     50  35  55 SW32G41   29.60R
WINIFRED         N/A     55  33  43 SW15      29.55S
$$

MTZ017>020-022>027-061-062-210000-
NORTHEAST MONTANA

CITY           SKY/WX    TMP DP  RH WIND       PRES   REMARKS
GLASGOW        CLOUDY    64  28  25 SW17G23   29.52F
JORDAN           N/A     64  32  30 SW20G28   29.57S
SIDNEY         SUNNY     68  29  23 SW16      29.59S
WOLF POINT     MOSUNNY   66  29  24 SW12      29.55F
MALTA          SUNNY     63  27  25 W16       29.50S
PLENTYWOOD       N/A     63  27  25 SW15G24   29.57R
POPLAR           N/A     64  28  25 SW14G22   29.56S
SCOBEY           N/A     63  25  23 SW22      29.56S
$$

MTZ028>42-056>058-210000-
SOUTHCENTRAL AND SOUTHEAST MONTANA

CITY           SKY/WX    TMP DP  RH WIND       PRES   REMARKS
BAKER          SUNNY     68  23  18 SW15G29   29.66S
BILLINGS       MOSUNNY   67  30  25 SW12G26   29.59S
LIVINGSTON     CLOUDY    58  32  37 W25G40    29.58F
MILES CITY     CLOUDY    68  23  18 W24G31    29.60R
BIG TIMBER     PTSUNNY   55  32  41 W7        29.62S
HARLOWTON        N/A     51  40  67 MISG      29.62R
LAUREL           N/A     66  30  26 SW24G32   29.59S
ROUNDUP          N/A     64  26  23 SW16      29.53S
$$

REGIONAL REPORTS...DAKOTAS

CITY           SKY/WX    TMP DP  RH WIND       PRES   REMARKS
WILLISTON      SUNNY     67  32  27 SW16G26   29.59S
MINOT          MOSUNNY   70  33  25 SW22G29   29.62R
DICKINSON      SUNNY     68  27  21 SW18G26   29.65S
BEACH            N/A     66  21  18 W17G28    29.67S
CROSBY           N/A     64  30  27 SW18G25   29.58R
TIOGA          PTSUNNY   64  32  29 SW20G29   29.62R
WATFORD CITY     N/A     66  28  24 SW16G25   29.61S
BISMARCK       MOSUNNY   71  34  25 SW14      29.71R
GRAND FORKS    MOSUNNY   71  39  31 SW13      29.72R
FARGO          SUNNY     71  39  31 SW13      29.78R
BUFFALO SD       N/A     68  26  20 SW16      29.63S
RAPID CITY     SUNNY     73  28  19 W16G24    29.74S
$$

REGIONAL REPORTS...WYOMING/IDAHO/WASHINGTON

CITY           SKY/WX    TMP DP  RH WIND       PRES   REMARKS
GILLETTE       CLOUDY    67  21  17 SW24G33   29.72S
SHERIDAN       SUNNY     69  25  19 S15G23    29.68S
BUFFALO WY     CLOUDY    64  21  19 SW15G23   29.76R
YELLOWSTONE LA   N/A     40  35  83 VRB6      29.81S
IDAHO FALLS    PTSUNNY   62  34  35 SW16G23   29.72F
SALMON         LGT RAIN  51  38  60 SW18      29.67R
BOISE          CLOUDY    53  48  83 NE8       29.73F
SPOKANE        LGT RAIN  44  44 100 SW7       29.67R
$$

REGIONAL REPORTS...ALBERTA

CITY           SKY/WX    TMP DP  RH WIND       PRES   REMARKS
EDMONTON       LGT RAIN  43  43 100 N14       29.42
CALGARY        PTSUNNY   41  37  87 N9        29.47R
LETHBRIDGE     PTSUNNY   59  21  23 W24G36    29.44R
MEDICINE HAT   MOSUNNY   63  23  22 SW21G30   29.41R
$$

REGIONAL REPORTS...SASKATCHEWAN

CITY           SKY/WX    TMP DP  RH WIND       PRES   REMARKS
SWIFT CURRENT  PTSUNNY   59  23  25 SW14G22   29.43R
REGINA         MOSUNNY   63  28  27 SW18G28   29.47S
SASKATOON      MOSUNNY   61  28  29 SW15G23   29.39R
$$



USA.gov is the U.S. government's official web portal to all federal, state and local government web resources and services.